[Iaude] MPEC B151: 2024 BB3 [a=1.34,e=0.64,i=36.3,H=20.4]
    mpec at marsden.cfa.harvard.edu 
    mpec at marsden.cfa.harvard.edu
       
    Mon Jan 29 13:30:03 EST 2024
    
    
  
M.P.E.C. 2024-B151                             Issued 2024 January 29, 18:28 UT
     The Minor Planet Electronic Circulars contain information on unusual
         minor planets, routine data on comets and natural satellites,
         and occasional editorial announcements.  They are published
    on behalf of Division F of the International Astronomical Union by the
          Minor Planet Center, Smithsonian Astrophysical Observatory,
                          Cambridge, MA 02138, U.S.A.
			  
             Prepared using the Tamkin Foundation Computer Network
                              MPC at CFA.HARVARD.EDU
            URL https://www.minorplanetcenter.net/    ISSN 1523-6714
                                    2024 BB3                                    
Observations:
     K24B03B  C2024 01 05.61792910 17 40.139+06 10 26.25         21.63GVEB151F51
     K24B03B  C2024 01 05.61858110 17 40.075+06 10 25.30         21.99GVEB151F51
     K24B03B  C2024 01 05.62992210 17 39.380+06 10 08.25         21.28GVEB151F51
     K24B03B  C2024 01 05.63056910 17 39.370+06 10 07.34         21.04GVEB151F51
     K24B03B  C2024 01 05.64195810 17 38.639+06 09 49.63         21.66GVEB151F51
     K24B03B  C2024 01 05.64260010 17 38.628+06 09 48.73         21.72GVEB151F51
     K24B03B  C2024 01 05.65396010 17 37.907+06 09 31.36         21.90GVEB151F51
     K24B03B* C2024 01 19.51495009 54 10.770-01 10 47.38         21.61wXEB151F52
     K24B03B  C2024 01 19.53982809 54 06.718-01 11 46.50         21.36wXEB151F52
     K24B03B  C2024 01 19.55218109 54 04.725-01 12 15.84         21.44wXEB151F52
     K24B03B  C2024 01 19.61074209 53 55.213-01 14 35.26         21.17GVEB151F52
     K24B03B  C2024 01 19.61138709 53 55.109-01 14 36.84         21.48GVEB151F52
     K24B03B 7C2024 01 24.17019009 40 11.958-04 30 36.89         20.5 GVEB151Z84
     K24B03B 7C2024 01 24.17915409 40 10.095-04 31 01.65         20.2 GVEB151Z84
     K24B03B 7C2024 01 24.18491709 40 08.893-04 31 17.53         20.3 GVEB151Z84
     K24B03B KC2024 01 29.35300 09 19 39.71 -08 51 19.6          20.0 RVEB151691
     K24B03B KC2024 01 29.37020 09 19 34.87 -08 52 15.6          20.0 RVEB151691
Observer details:
691 Steward Observatory, Kitt Peak-Spacewatch.  Observer T. H. Bressi.  0.9-m
    f/3 reflector + CCD.
F51 Pan-STARRS 1, Haleakala.  Observers J. Herman, T. Lowe, P. Minguez, A.
    Schultz, I. Smith.  Measurers K. Chambers, T. de Boer, J. Fairlamb, H.
    Gao, M. Huber, C.-C. Lin, E. Magnier, Y. Ramanjooloo, R. Wainscoat, R.
    Weryk.  1.8-m Ritchey-Chretien + CCD.
F52 Pan-STARRS 2, Haleakala.  Observers J. Herman, T. Lowe, P. Minguez, A.
    Schultz, I. Smith.  Measurers K. Chambers, T. de Boer, J. Fairlamb, H.
    Gao, M. Huber, C.-C. Lin, E. Magnier, Y. Ramanjooloo, R. Wainscoat, R.
    Weryk.  1.8-m Ritchey-Chretien + CCD.
Z84 Calar Alto-Schmidt.  Observers F. Ocana, R. Kresken, M. Micheli, L.
    Conversi.  Measurers F. Ocana, M. Micheli.  0.8-m f/3 Schmidt + CCD.
Orbital elements:
2024 BB3                                                 Earth MOID = 0.3238 AU
Epoch 2023 Sept. 13.0 TT = JDT 2460200.5                Veres                   
M 213.73751              (2000.0)            P               Q                  
n   0.63881989     Peri.  326.12149     +0.08195179     +0.86562432             
a   1.3352126      Node   303.40588     -0.73167102     -0.28426192             
e   0.6440488      Incl.   36.27737     -0.67671369     +0.41217678             
P   1.54           H   20.40          G   0.15           U   7                  
Residuals in seconds of arc
240105 F51  0.3+  0.1-    240105 F51  0.2-  0.1-    240124 Z84  0.2-  0.2-
240105 F51  0.1-  0.1-    240119 F52  0.2-  0.0     240124 Z84  0.1+  0.1-
240105 F51  0.1-  0.1+    240119 F52  0.3-  0.0     240124 Z84  0.2+  0.1+
240105 F51  0.3+  0.2+    240119 F52  0.1-  0.1+    240129 691  0.1-  0.4+
240105 F51  0.2-  0.1-    240119 F52  0.1-  0.1+    240129 691  0.6-  0.3+
240105 F51  0.2+  0.0     240119 F52  0.1-  0.1+
Ephemeris:
2024 BB3                 a,e,i = 1.34, 0.64, 36                  q = 0.4753
Date    TT    R. A. (2000) Decl.     Delta      r    Elong.  Phase     V
2023 12 30    10 22 12.6 +08 43 59   0.8909  1.6516   123.5    29.8    22.5
...
2024 01 14    10 06 18.0 +02 08 32   0.6508  1.5368   139.3    24.7    21.5
...
2024 01 22    09 47 12.0 -02 53 22   0.5414  1.4700   147.6    21.0    20.9
...
2024 01 28    09 25 35.6 -07 39 04   0.4720  1.4173   151.4    19.4    20.5
2024 01 29    09 21 15.2 -08 32 02   0.4617  1.4082   151.6    19.4    20.4
2024 01 30    09 16 40.9 -09 26 28   0.4519  1.3991   151.6    19.5    20.4
...
2024 02 05    08 44 03.2 -15 19 46   0.4022  1.3432   147.7    23.1    20.2
...
2024 02 13    07 46 29.7 -23 32 29   0.3646  1.2647   133.1    34.7    20.2
...
2024 02 28    05 39 18.8 -33 26 41   0.3797  1.1053    97.4    62.7    20.7
M. P. C. Staff               (C) Copyright 2024 MPC           M.P.E.C. 2024-B151
    
    
More information about the Iaude
mailing list